Location: Unspecified
(33.9360°N, 83.4200°W)
Time: 06:22:28
(UTC-04:00)

Daily predictions for brighter satellites

Satellite Brightness Start Highest point End
(mag) Time Altitude Azimuth Time Altitude Azimuth Time Altitude Azimuth
Cosmos 1934 Rocket 4.5 20:04:12 10° SSE 20:09:44 36° E 20:15:13 10° NNE
Cosmos 1898 Rocket 3.5 20:06:17 10° S 20:11:35 75° ESE 20:16:52 10° NNE
Cosmos 990 Rocket 4.4 20:07:51 10° S 20:12:45 41° ESE 20:17:39 10° NNE
Tiangong 1 3.2 20:12:26 10° NNW 20:14:24 16° N 20:16:21 10° NE
Cosmos 1378 4.1 20:11:27 10° NNE 20:14:40 26° ENE 20:17:50 10° SE
FENGYUN 3A 4.0 20:11:47 10° SE 20:16:54 45° ENE 20:22:01 10° N
H-2A R/B 3.8 20:17:40 10° SE 20:20:55 26° ENE 20:24:14 10° NNE
Meteor 1-24 Rocket 4.2 20:19:10 10° N 20:24:16 37° ENE 20:29:30 10° SE
NOSS 3-4 (A) 4.2 20:21:17 10° NW 20:28:25 70° WSW 20:35:57 10° SSE
NOSS 3-4 (C) 4.2 20:21:23 10° NW 20:28:31 71° WSW 20:36:04 10° SSE
Cosmos 1821 Rocket 4.0 20:23:04 10° S 20:29:25 72° E 20:35:45 10° N
Cosmos 1707 2.6 20:25:35 10° N 20:29:29 76° E 20:33:20 10° S
Meteor 2-5 Rocket 3.7 20:24:53 10° N 20:30:38 78° E 20:36:28 10° SSE
Geosat 4.0 20:29:54 10° NNE 20:34:52 58° ESE 20:39:47 10° SSW
ALOS 2.2 20:31:02 10° SSE 20:35:40 73° ENE 20:40:21 10° N
HJ-1C 3.4 20:32:54 10° SSE 20:36:14 62° ENE 20:39:36 10° N
Cosmos 1535 Rocket 4.5 20:30:13 10° S 20:36:25 80° E 20:42:45 10° N
CZ-3B DEB 3.7 20:24:07 10° SW 20:37:59 71° NW 20:44:08 10° NE
Cosmos 2082 Rocket 4.1 20:36:37 10° NE 20:38:15 11° NE 20:39:45 10° ENE
Cosmos 1812 Rocket 3.5 20:34:20 10° S 20:38:44 76° E 20:43:09 10° N
Resurs 01 Rocket 1.8 20:35:07 10° SSE 20:39:20 48° ENE 20:43:35 10° N
Cosmos 1766 3.3 20:36:08 10° S 20:39:54 54° E 20:43:42 10° NNE
Cosmos 1544 4.2 20:37:56 10° SE 20:40:51 23° E 20:43:47 10° NE
RESURS DK-1 3.4 20:40:56 10° N 20:44:27 26° ENE 20:46:07 20° E
Cosmos 1937 Rocket 3.7 20:39:21 10° SSW 20:44:33 75° WNW 20:49:50 10° NNE
BREEZE-M DEB (TANK) 2.9 20:43:13 10° SSW 20:45:46 38° SE 20:51:46 10° ENE
COSMOS 2406 3.3 20:40:14 10° NNW 20:46:00 86° WSW 20:51:42 10° SSE
Cosmos 1605 Rocket 4.1 20:41:22 10° SSE 20:47:21 52° E 20:53:27 10° NNE
SL-27 R/B 3.2 20:45:51 10° N 20:49:06 32° ENE 20:50:29 24° ESE
Lacrosse 5 1.9 20:45:08 10° SW 20:50:12 83° NW 20:55:17 10° NE
Meteor 1-29 4.1 20:50:07 10° NE 20:52:31 25° E 20:52:31 25° E
SeaSat 1 2.8 20:51:13 10° SSE 20:56:06 66° WSW 21:01:01 10° NNW
Cosmos 1844 4.5 20:50:41 10° SW 20:56:18 56° WNW 21:02:01 10° NNE
Delta 2 Rocket 3.4 20:53:26 10° W 20:58:07 76° N 21:00:11 29° E
Cosmos 2123 Rocket 3.9 20:58:02 10° N 21:04:21 73° E 21:10:36 10° SSE
CZ-2D R/B 3.1 21:06:58 15° SSE 21:10:07 83° ENE 21:14:00 10° N
Cosmos 2344 4.1 21:02:49 10° SW 21:10:25 63° NW 21:18:39 10° NNE
Cosmos 1867 3.8 21:10:03 10° S 21:15:12 46° ESE 21:20:24 10° NE
Helios 1A 3.0 21:14:06 38° SE 21:15:26 57° ENE 21:19:32 10° N
Cosmos 1805 3.1 21:12:46 10° S 21:16:38 80° E 21:20:33 10° N
Helios 1B rocket 2.3 21:13:32 10° NNE 21:17:41 81° ESE 21:21:47 10° S
Yuri Rocket 3.6 21:14:45 10° WSW 21:18:37 38° S 21:19:20 35° SSE
Lacrosse 4 Rocket 4.4 21:22:49 10° W 21:25:10 15° NW 21:27:31 10° NNW
Resurs 1-3 4.3 21:22:47 10° S 21:27:03 53° W 21:31:21 10° NNW
Cosmos 372 Rocket 3.9 21:27:05 10° S 21:32:02 56° ESE 21:37:03 10° NNE
Cosmos 1758 3.8 21:36:33 10° SSW 21:40:27 58° W 21:44:23 10° N
In-Cosmos 22 4.4 21:36:40 10° NNW 21:41:54 62° W 21:46:00 16° S
SJ-11-01 4.3 21:44:05 67° NE 21:44:05 67° NE 21:48:31 10° N
Cosmos 1447 Rocket 4.3 21:37:46 10° N 21:43:56 84° E 21:46:45 35° S
USA 215 3.7 21:38:37 10° NE 21:45:02 61° NW 21:51:26 10° WSW
Cosmos 1459 Rocket 3.9 21:45:23 50° SE 21:46:45 62° E 21:52:53 10° NNE
Cosmos 1939 Rocket 4.0 21:49:27 37° N 21:49:27 37° N 21:52:02 10° N
OAO 1 4.4 21:42:30 10° W 21:48:01 82° N 21:48:33 72° ENE
Cosmos 2173 Rocket 3.9 21:48:08 59° SE 21:48:49 63° E 21:54:57 10° NNE
Cosmos 2278 Rocket 3.7 21:44:00 10° SW 21:49:08 35° WNW 21:54:20 10° N
Tiangong 1 3.7 21:47:54 10° NW 21:48:48 18° NW 21:48:48 18° NW
Cosmos 1953 3.3 21:46:50 10° SSW 21:50:46 47° W 21:54:43 10° N
CZ-3 Stage 3 3.3 21:16:17 10° W 21:52:17 77° S 21:54:41 50° ESE
Cosmos 1833 Rocket 3.4 21:48:26 10° N 21:52:40 38° NE 21:52:40 38° NE
Cosmos 1408 Rocket 4.5 21:50:19 10° N 21:53:15 40° N 21:53:15 40° N
Envisat 2.9 21:54:30 77° SSW 21:54:52 84° WSW 21:59:58 10° NNW
Cosmos 2297 4.0 21:55:39 10° SSW 22:01:17 65° WNW 22:06:59 10° NNE
Cosmos 1125 Rocket 4.2 21:57:00 10° SSW 22:02:02 52° WNW 22:07:07 10° N
USA 267 4.4 22:14:41 28° NE 22:14:48 28° NNE 22:20:12 10° NNW
ERS-1 Rocket 4.2 22:23:31 36° NNW 22:23:31 36° NNW 22:26:28 10° NNW
Cosmos 2082 Rocket 2.8 22:17:25 10° NNW 22:21:38 52° NNW 22:21:38 52° NNW
Cosmos 1818 4.4 22:22:09 10° NNW 22:26:00 47° NW 22:26:00 47° NW
